• Join FlightAware (Why Join?)
  • Login
  • US Flag 
07:28AM EST


 

Airport Tracker/Info


-or-


 

Live Flight TrackerFlight Track Log ✈ SKW2980 ✈ 02-May-2013 ✈ KSBA - KPHX

Flight Track Log - Related Links

Times and Time Zones

All times are in EDT time to prevent confusion due to time zone crossing. See the SKW2980 flight status page for this flight to view local times or setup timezone preferences in your user account.

Time Position Orientation Groundspeed Altitude Reporting Facility
EDT Latitude Longitude Course Direction KTS MPH feet Rate Location/Type
10:26PM 34.4253 -119.8669 171° South 138 159 900  Level Los Angeles Center
10:28PM 34.3550 -119.8536 171° South 259 298 3,400 2,215 Climbing Los Angeles Center
10:29PM 34.2864 -119.8111 153° Southeast 269 310 6,400 2,806 Climbing Los Angeles Center
10:30PM 34.2136 -119.7725 156° South 281 323 9,200 2,613 Climbing Los Angeles Center
10:31PM 34.1394 -119.7311 155° Southeast 291 335 11,800 2,634 Climbing Los Angeles Center
10:32PM 34.0839 -119.6269 123° Southeast 310 357 14,600 2,293 Climbing Los Angeles Center
10:33PM 34.0414 -119.5319 118° Southeast 319 367 16,500 1,790 Climbing Los Angeles Center
10:34PM 33.9994 -119.4322 117° Southeast 331 381 18,300 1,645 Climbing Los Angeles Center
10:35PM 33.9553 -119.3278 117° Southeast 346 398 19,900 1,597 Climbing Los Angeles Center
10:36PM 33.9381 -119.2119 100° East 359 413 21,600 1,073 Climbing Los Angeles Center
10:37PM 33.9289 -119.0872 95° East 378 435 22,100 1,122 Climbing Los Angeles Center
10:38PM 33.9150 -118.9342 96° East 383 441 23,900 1,452 Climbing Los Angeles Center
10:39PM 33.9022 -118.8075 97° East 381 438 25,100 1,016 Climbing Los Angeles Center
10:40PM 33.8897 -118.6736 96° East 395 455 26,000 878 Climbing Los Angeles Center
10:41PM 33.8778 -118.5375 96° East 405 466 26,900 780 Climbing Los Angeles Center
10:42PM 33.8647 -118.3961 96° East 416 479 27,600 726 Climbing Los Angeles Center
10:43PM 33.8497 -118.2486 97° East 431 496 28,400 726 Climbing Los Angeles Center
10:44PM 33.8358 -118.1008 96° East 436 502 29,100 732 Climbing Los Angeles Center
10:45PM 33.8214 -117.9542 97° East 439 505 29,900 634 Climbing Los Angeles Center
10:46PM 33.8067 -117.8078 97° East 442 509 30,400 581 Climbing Los Angeles Center
10:47PM 33.7919 -117.6597 97° East 445 512 31,100 629 Climbing Los Angeles Center
10:48PM 33.7739 -117.4806 97° East 450 518 31,700 683 Climbing Los Angeles Center
10:49PM 33.7586 -117.3308 97° East 452 520 32,500 634 Climbing Los Angeles Center
10:50PM 33.7414 -117.1836 98° East 450 518 33,000 242 Climbing Los Angeles Center
10:51PM 33.7253 -117.0331 97° East 458 527 33,000  Level Los Angeles Center
10:52PM 33.7092 -116.8806 97° East 462 532 33,000  Level Los Angeles Center
10:53PM 33.6906 -116.7178 98° East 463 533 33,000  Level Los Angeles Center
10:55PM 33.6728 -116.5647 98° East 463 533 33,000  Level Los Angeles Center
10:56PM 33.6558 -116.4106 97° East 465 535 33,000  Level Los Angeles Center
10:57PM 33.6383 -116.2564 98° East 465 535 33,000  Level Los Angeles Center
10:58PM 33.6275 -116.1000 95° East 468 539 33,000  Level Los Angeles Center
10:59PM 33.6125 -115.9158 96° East 462 532 33,000  Level Los Angeles Center
11:00PM 33.6011 -115.7636 95° East 459 528 33,000  Level Los Angeles Center
11:01PM 33.5889 -115.6092 95° East 463 533 33,000  Level Los Angeles Center
11:02PM 33.5781 -115.4558 95° East 460 529 33,000  Level Los Angeles Center
11:03PM 33.5647 -115.3022 96° East 462 532 33,000  Level Los Angeles Center
11:04PM 33.5519 -115.1478 96° East 464 534 33,000 -146 Level Los Angeles Center
11:05PM 33.5386 -114.9936 96° East 465 535 32,700 -878 Descending Los Angeles Center
11:06PM 33.5261 -114.8369 95° East 473 544 31,200 -1,597 Descending Los Angeles Center
11:07PM 33.5100 -114.6486 96° East 473 544 29,400 -1,537 Descending Los Angeles Center
11:07PM 33.5125 -114.6239 83° East 472 543 29,100 -1,317 Descending Albuquerque Center
11:08PM 33.4972 -114.4819 97° East 435 501 27,600 -1,463 Descending Albuquerque Center
11:09PM 33.4828 -114.3058 96° East 438 504 26,100 -1,279 Descending Albuquerque Center
11:10PM 33.4700 -114.1558 96° East 447 514 25,000 -541 Descending Albuquerque Center
11:11PM 33.4508 -114.0072 99° East 450 518 25,000 -146 Level Albuquerque Center
11:12PM 33.4208 -113.8700 105° East 436 502 24,700 -634 Descending Albuquerque Center
11:13PM 33.3892 -113.7264 105° East 438 504 23,700 -1,279 Descending Albuquerque Center
11:14PM 33.3583 -113.5750 104° East 451 519 22,100 -2,000 Descending Albuquerque Center
11:15PM 33.3333 -113.4358 102° East 444 511 19,600 -1,902 Descending Albuquerque Center
11:16PM 33.3061 -113.3078 104° East 422 486 18,200 -1,279 Descending Albuquerque Center
11:17PM 33.2800 -113.1822 104° East 398 458 17,000 -1,230 Descending Albuquerque Center
11:18PM 33.2744 -113.0578 93° East 383 441 15,700 -1,366 Descending Albuquerque Center
11:19PM 33.2786 -112.9050 88° East 382 440 14,200 -1,951 Descending Albuquerque Center
11:20PM 33.2914 -112.7919 82° East 354 407 11,700 -1,967 Descending Albuquerque Center
11:21PM 33.3244 -112.7047 66° East 295 339 10,200 -1,122 Descending Albuquerque Center
11:23PM 33.3533 -112.6261 66° East 268 308 9,400 -829 Descending Albuquerque Center
11:24PM 33.3822 -112.5536 64° Northeast 253 291 8,500 -689 Descending Albuquerque Center
11:25PM 33.4083 -112.4836 66° East 230 265 8,000 -732 Descending Albuquerque Center
11:26PM 33.4286 -112.4131 71° East 226 260 7,000 -1,024 Descending Albuquerque Center
11:27PM 33.4283 -112.3386 90° East 224 258 5,900 -1,230 Descending Albuquerque Center
11:28PM 33.4403 -112.2489 81° East 230 265 4,500 -1,122 Descending Albuquerque Center
11:29PM 33.4408 -112.1775 89° East 216 249 3,600 -927 Descending Albuquerque Center
11:30PM 33.4406 -112.1203 90° East 179 206 2,600 -787 Descending Albuquerque Center
11:31PM 33.4408 -112.0767 90° East 131 151 2,000 -634 Descending Albuquerque Center
11:32PM 33.4403 -112.0292 91° East 127 146 1,300 -677 Descending Albuquerque Center
11:34PM 33.4343 -112.0116 90° East  Level Estimated